Current weather by "City, St" or "zip code"  
 
Advertise Here

Current Conditions: Oakdale, Allen Parish Airport, LA

Partly Cloudy


93.0 F

Last Updated on Aug 4 2020, 4:55 pm CDT
Humidity: 47%
Wind Speed: W 5.8 mph
Barometer 29.94 in
Dewpoint: 69.8 F
Visibility: 10.00 mi
Precip: --
Heat Index: 99 F
Wind Chill: NA
Current conditions at:

Oakdale, Allen Parish Airport, LA (KACP)

Lat: 30.75056 Lon: 92.68861

Local Radar Image active severe weather and emergency alerts image image weather storm and storm spotter reports image weather observation monitoring service image
Local
Radar
Active
Alerts
Storm Reports Obs
Monitoring

Sign-up For Email & Text Message Weather Alert Notification Services


Advertise Here

Observation History for Oakdale, Allen Parish Airport, LA


Time Wind
(mph)
Vis
(mi)
Weather Precip (in) Temperature (F) Relative
Humidity
Wind
Chill
(F)
Heat
Index
(F)
Pressure
Air Dwpt altimeter
(in)
sea level
(mb)
Rmks
4:55 pm CDT W 5.8 10.00 Partly Cloudy -- 93.0 69.8 47% NA 99 29.94 M
3:55 pm CDT NW 6.9 10.00 Partly Cloudy -- 93.0 69.8 47% NA 99 29.96 M
2:55 pm CDT N 4.6 10.00 Fair -- 91.0 68.0 46% NA 95 29.98 M
1:55 pm CDT N 0.0 10.00 Fair -- 91.0 66.2 44% NA 94 30.00 M
12:55 pm CDT S 3.5 10.00 Fair -- 90.0 64.4 43% NA 92 30.01 M
11:55 am CDT N 0.0 10.00 Fair -- 88.0 64.4 46% NA 90 30.02 M
10:55 am CDT N 0.0 10.00 Fair -- 86.0 64.4 49% NA 87 30.02 M
9:55 am CDT N 0.0 10.00 Fair -- 82.0 66.2 58% NA 84 30.02 M
8:55 am CDT N 0.0 10.00 Fair -- 79.0 69.8 74% NA NA 30.01 M
7:55 am CDT N 0.0 10.00 Fair -- 72.0 69.8 94% NA NA 30.00 M
6:55 am CDT N 0.0 5.00 Fog/Mist -- 68.0 66.2 94% NA NA 29.99 M
5:55 am CDT N 0.0 4.00 Fog/Mist -- 70.0 68.0 94% NA NA 29.98 M
4:55 am CDT N 0.0 5.00 Fog/Mist -- 70.0 68.0 94% NA NA 29.97 M
3:55 am CDT N 0.0 4.00 Fog/Mist -- 72.0 69.8 94% NA NA 29.96 M
2:55 am CDT N 0.0 7.00 Partly Cloudy -- 72.0 69.8 94% NA NA 29.97 M
1:55 am CDT N 0.0 5.00 Fog/Mist -- 72.0 69.8 94% NA NA 29.96 M
12:55 am CDT N 0.0 7.00 Partly Cloudy -- 73.0 69.8 89% NA NA 29.97 M
11:55 pm CDT N 0.0 7.00 Overcast -- 73.0 71.6 94% NA NA 29.98 M
10:55 pm CDT N 0.0 5.00 Fog/Mist -- 73.0 71.6 94% NA NA 29.98 M
9:55 pm CDT N 0.0 7.00 Fair -- 75.0 71.6 89% NA NA 29.95 M
8:55 pm CDT N 0.0 10.00 Fair -- 77.0 75.2 94% NA NA 29.94 M
7:55 pm CDT N 0.0 10.00 Fair -- 82.0 77.0 84% NA 90 29.93 M
6:55 pm CDT N 0.0 10.00 Fair -- 86.0 73.4 66% NA 93 29.93 M
5:55 pm CDT N 0.0 10.00 Fair -- 91.0 68.0 46% NA 95 29.92 M

Regional Weather Observation


Oakdale, Allen Parish Airport, LA (KACP)

Partly Cloudy
93.0 F

Fort Polk, Polk AAF Ft Polk, LA (KPOE)

Fair
91.0 F

Ft. Polk/Self Strip, LA (KDNK)

Light Rain
66.0 F

De Ridder, Beauregard Parish Airport, LA (KDRI)

Partly Cloudy
92.0 F

Alexandria, Alexandria International Airport, LA (KAEX)

Fair
92.0 F

Ft. Polk - Peason Ridge, LA (KAQV)

Fair
92.0 F